"startDT [UTC]","vpos","CH4 [ppm]","stdev(CH4) [ppm]","CO2 [ppm]","stdev(CO2) [ppm]","H2O [ppm]","stdev(H2O)","p_LGR [torr]","T_LGR [C]","mt1_LGR [us]","mt2_LGR [us]","T_ECpre [C]","T_EC1 [C]","T_EC2 [C]","p_inlet [hPa]","p_in [hPa]","p_out [hPa]","T_inlet [C]","RH_inlet [%]","dwpt_inlet [C]","T_vent [C]","RH_vent [%]","dwpt_vent [C]","flow_vent [l min-1]","flow_inlet [l min-1]","dwpt_sample [C]","T_room [C]"
2012-08-23 00:00:00,0.0,1.9435,0.0008,386.07,0.27,237.6,27.7,138.06,31.02,24.66,36.55,0.95,-26.54,-26.43,-49,78,-917,25.4,22.0,2.2,25.1,1.6,-30.0,5.73,2.51,-27.6,29.6
2012-08-23 00:01:00,0.0,1.9437,0.0009,386.13,0.28,244.7,30.0,138.06,31.02,24.66,36.54,0.93,-26.55,-26.51,-49,78,-916,25.4,22.2,2.3,25.1,1.6,-30.0,5.73,2.50,-27.6,29.6
2012-08-23 00:02:00,0.0,1.9434,0.0009,386.12,0.31,240.5,27.8,138.06,31.02,24.66,36.55,1.00,-26.56,-26.28,-48,78,-917,25.4,22.2,2.2,25.1,1.6,-30.0,5.73,2.51,-27.6,29.6
2012-08-23 00:03:00,0.0,1.9438,0.0009,386.06,0.30,237.4,27.0,138.06,31.02,24.66,36.55,1.05,-26.57,-26.40,-48,78,-916,25.4,22.1,2.2,25.1,1.6,-30.0,5.73,2.50,-27.6,29.6
2012-08-23 00:04:00,0.0,1.9435,0.0009,386.22,0.29,242.2,32.0,138.06,31.02,24.66,36.54,1.03,-26.58,-26.57,-48,78,-917,25.4,22.0,2.1,25.1,1.6,-30.0,5.73,2.50,-27.6,29.6
2012-08-23 00:05:00,0.0,1.9436,0.0009,386.22,0.28,240.4,30.0,138.06,31.02,24.66,36.54,0.95,-26.58,-26.35,-48,78,-917,25.4,22.0,2.1,25.1,1.6,-30.0,5.73,2.50,-27.7,29.6
2012-08-23 00:06:00,0.0,1.9435,0.0008,385.91,0.29,239.8,29.8,138.06,31.02,24.66,36.54,0.95,-26.60,-26.38,-48,78,-917,25.4,22.1,2.2,25.1,1.6,-29.9,5.73,2.50,-27.6,29.6
2012-08-23 00:07:00,0.0,1.9435,0.0008,386.05,0.31,242.8,28.4,138.06,31.02,24.65,36.55,0.98,-26.60,-26.56,-48,78,-917,25.4,22.1,2.2,25.2,1.6,-29.9,5.73,2.50,-27.6,29.6
2012-08-23 00:08:00,0.0,1.9427,0.0009,385.71,0.33,243.0,34.3,138.06,31.02,24.66,36.55,0.85,-26.48,-26.49,-49,78,-916,25.4,22.1,2.2,25.2,1.6,-30.0,5.73,2.51,-27.6,29.6
2012-08-23 00:09:00,0.0,1.9419,0.0010,386.06,0.27,243.4,33.1,138.06,31.02,24.66,36.54,0.94,-25.20,-26.42,-49,78,-917,25.5,22.1,2.3,25.2,1.6,-29.9,5.73,2.49,-27.5,29.6
2012-08-23 00:10:00,0.0,1.9415,0.0009,386.08,0.30,262.8,27.2,138.06,31.02,24.66,36.55,0.94,-23.29,-26.51,-49,78,-917,25.5,21.6,1.9,25.2,1.6,-29.7,5.73,2.50,-27.1,29.7
2012-08-23 00:11:00,0.0,1.9419,0.0010,386.01,0.29,295.8,33.3,138.06,31.02,24.66,36.55,0.94,-21.35,-26.59,-49,78,-917,25.4,21.7,2.0,25.2,1.8,-28.8,5.73,2.51,-26.7,29.7
2012-08-23 00:12:00,0.0,1.9421,0.0009,385.95,0.27,314.8,28.6,138.06,31.02,24.66,36.55,0.91,-19.46,-26.64,-49,78,-917,25.4,21.9,2.1,25.2,1.9,-28.1,5.73,2.50,-26.3,29.7
2012-08-23 00:13:00,0.0,1.9421,0.0008,385.99,0.28,333.6,30.1,138.06,31.02,24.66,36.55,0.87,-17.68,-26.69,-48,78,-917,25.4,21.8,2.0,25.2,2.0,-27.7,5.73,2.50,-26.1,29.6
2012-08-23 00:14:00,0.0,1.9426,0.0008,386.15,0.28,338.2,29.9,138.06,31.02,24.66,36.54,0.85,-15.96,-26.71,-48,78,-917,25.4,21.7,2.0,25.1,2.0,-27.6,5.73,2.50,-26.0,29.6
2012-08-23 00:15:00,0.0,1.9431,0.0009,385.75,0.33,347.2,35.6,138.06,31.02,24.66,36.55,0.88,-14.35,-26.72,-48,78,-917,25.4,22.0,2.1,25.1,2.0,-27.6,5.73,2.50,-26.0,29.7
2012-08-23 00:16:00,0.0,1.9439,0.0008,385.94,0.28,338.6,31.8,138.06,31.02,24.66,36.55,0.91,-12.83,-26.74,-48,78,-916,25.4,22.1,2.2,25.1,2.0,-27.8,5.73,2.51,-26.0,29.7
2012-08-23 00:17:00,0.0,1.9434,0.0008,385.84,0.27,337.7,32.0,138.06,31.02,24.66,36.55,0.90,-11.39,-26.75,-48,78,-916,25.4,22.2,2.3,25.1,1.9,-27.9,5.73,2.50,-26.1,29.7
2012-08-23 00:18:00,0.0,1.9426,0.0008,385.90,0.36,338.2,32.3,138.06,31.02,24.66,36.56,0.93,-10.01,-26.75,-48,78,-917,25.4,22.2,2.2,25.1,1.9,-28.1,5.73,2.50,-26.1,29.7
2012-08-23 00:19:00,0.0,1.9413,0.0010,385.93,0.29,328.4,30.1,138.06,31.02,24.66,36.55,0.94,-8.70,-26.76,-48,78,-917,25.4,22.0,2.2,25.1,1.9,-28.2,5.73,2.51,-26.2,29.7
2012-08-23 00:20:00,0.0,1.9416,0.0009,386.13,0.30,323.1,32.5,138.06,31.02,24.66,36.55,0.94,-7.46,-26.76,-48,78,-917,25.4,21.9,2.0,25.1,1.9,-28.3,5.73,2.50,-26.2,29.7
2012-08-23 00:21:00,0.0,1.9414,0.0008,386.15,0.27,331.3,26.8,138.06,31.02,24.66,36.55,0.95,-6.28,-26.76,-48,78,-916,25.4,21.7,1.9,25.1,1.8,-28.4,5.73,2.50,-26.3,29.7
2012-08-23 00:22:00,0.0,1.9414,0.0009,386.09,0.27,312.2,28.3,138.06,31.02,24.66,36.55,0.92,-5.17,-26.76,-48,78,-917,25.3,21.7,1.9,25.1,1.8,-28.5,5.73,2.51,-26.4,29.7
2012-08-23 00:23:00,0.0,1.9419,0.0010,386.05,0.30,317.9,30.1,138.06,31.02,24.66,36.55,0.90,-4.10,-26.76,-48,78,-916,25.4,21.7,1.9,25.1,1.8,-28.6,5.73,2.50,-26.4,29.7
2012-08-23 00:24:00,0.0,1.9425,0.0012,385.96,0.31,314.5,28.2,138.06,31.02,24.66,36.55,0.89,-3.10,-26.75,-48,78,-917,25.4,21.9,2.0,25.1,1.8,-28.7,5.73,2.51,-26.5,29.7
2012-08-23 00:25:00,0.0,1.9434,0.0009,385.95,0.33,300.1,28.7,138.06,31.02,24.65,36.55,0.91,-2.14,-26.74,-48,78,-916,25.4,22.1,2.1,25.1,1.8,-28.8,5.73,2.50,-26.6,29.7
2012-08-23 00:26:00,0.0,1.9425,0.0010,386.22,0.27,307.1,32.4,138.06,31.02,24.66,36.55,0.90,-1.24,-26.74,-48,78,-917,25.3,21.9,2.0,25.1,1.8,-28.9,5.73,2.50,-26.6,29.7
2012-08-23 00:27:00,0.0,1.9432,0.0009,386.13,0.24,297.5,33.7,138.06,31.02,24.66,36.55,0.92,-0.37,-26.73,-48,78,-917,25.4,21.9,2.0,25.1,1.8,-28.9,5.73,2.50,-26.6,29.7
2012-08-23 00:28:00,0.0,1.9432,0.0010,386.11,0.29,298.7,32.2,138.06,31.02,24.66,36.55,0.91,0.45,-26.72,-48,78,-917,25.4,22.0,2.1,25.1,1.7,-29.1,5.73,2.50,-26.7,29.7
2012-08-23 00:29:00,0.0,1.9429,0.0011,385.80,0.26,294.7,27.5,138.06,31.02,24.66,36.56,0.92,1.22,-26.71,-48,78,-916,25.4,22.2,2.2,25.1,1.7,-29.1,5.73,2.50,-26.7,29.7
2012-08-23 00:30:00,0.0,1.9426,0.0009,385.80,0.26,290.2,32.2,138.06,31.03,24.66,36.55,0.93,1.93,-26.70,-48,78,-917,25.4,22.3,2.3,25.1,1.7,-29.1,5.73,2.50,-26.8,29.7
2012-08-23 00:31:00,0.0,1.9422,0.0010,386.09,0.25,298.0,32.3,138.06,31.03,24.66,36.55,0.93,2.56,-26.69,-48,78,-917,25.4,22.2,2.3,25.1,1.7,-29.3,5.73,2.50,-26.8,29.7
2012-08-23 00:32:00,0.0,1.9422,0.0009,386.01,0.30,289.7,30.6,138.06,31.03,24.66,36.55,0.94,2.85,-26.68,-48,78,-916,25.4,22.2,2.2,25.1,1.7,-29.2,5.73,2.50,-26.9,29.7
2012-08-23 00:33:00,0.0,1.9423,0.0008,385.88,0.33,277.4,33.1,138.06,31.03,24.66,36.55,0.94,3.00,-26.67,-48,78,-916,25.4,22.4,2.3,25.1,1.7,-29.4,5.73,2.50,-26.9,29.7
2012-08-23 00:34:00,0.0,1.9423,0.0009,386.08,0.30,280.7,35.0,138.06,31.03,24.66,36.55,0.94,3.33,-26.66,-48,78,-917,25.4,22.2,2.3,25.1,1.7,-29.5,5.73,2.51,-27.0,29.7
2012-08-23 00:35:00,0.0,1.9427,0.0009,385.99,0.27,276.9,31.2,138.06,31.03,24.66,36.55,0.94,3.77,-26.65,-48,78,-917,25.4,22.3,2.3,25.1,1.7,-29.4,5.73,2.50,-27.0,29.7
2012-08-23 00:36:00,0.0,1.9433,0.0008,386.11,0.32,272.7,34.2,138.06,31.03,24.65,36.55,0.94,4.25,-26.64,-48,78,-917,25.4,22.3,2.3,25.1,1.7,-29.5,5.73,2.50,-27.0,29.7
2012-08-23 00:37:00,0.0,1.9431,0.0009,386.16,0.26,270.4,25.3,138.06,31.03,24.66,36.54,0.95,4.73,-26.63,-48,78,-916,25.4,22.3,2.3,25.1,1.6,-29.6,5.73,2.51,-27.1,29.7
2012-08-23 00:38:00,0.0,1.9432,0.0012,385.96,0.31,265.2,32.8,138.06,31.03,24.66,36.55,0.94,5.14,-26.61,-48,78,-917,25.4,22.5,2.4,25.1,1.6,-29.6,5.73,2.51,-27.1,29.7
2012-08-23 00:39:00,0.0,1.9435,0.0011,386.26,0.29,268.0,29.3,138.06,31.04,24.66,36.54,0.93,5.55,-26.60,-48,78,-917,25.4,22.1,2.2,25.1,1.6,-29.6,5.73,2.50,-27.1,29.7
2012-08-23 00:40:00,0.0,1.9437,0.0010,386.13,0.23,260.5,29.5,138.06,31.04,24.66,36.54,0.91,6.06,-26.59,-48,78,-917,25.4,22.0,2.2,25.1,1.6,-29.6,5.73,2.51,-27.2,29.7
2012-08-23 00:41:00,0.0,1.9432,0.0010,385.79,0.30,267.9,31.6,138.06,31.04,24.66,36.56,0.93,6.60,-26.59,-48,78,-916,25.4,22.1,2.2,25.2,1.6,-29.6,5.73,2.50,-27.2,29.7
2012-08-23 00:42:00,0.0,1.9432,0.0008,386.12,0.28,266.7,30.2,138.06,31.04,24.66,36.55,0.93,7.14,-26.57,-48,78,-917,25.4,22.1,2.2,25.2,1.6,-29.6,5.73,2.50,-27.2,29.7
2012-08-23 00:43:00,0.0,1.9428,0.0009,386.06,0.26,264.5,35.4,138.06,31.04,24.66,36.55,0.91,7.59,-26.56,-48,78,-917,25.4,22.0,2.2,25.1,1.6,-29.6,5.73,2.50,-27.2,29.7
2012-08-23 00:44:00,0.0,1.9423,0.0011,385.83,0.28,265.2,29.2,138.06,31.04,24.66,36.55,0.92,8.00,-26.55,-48,78,-917,25.4,22.2,2.2,25.1,1.6,-29.6,5.73,2.50,-27.2,29.7
2012-08-23 00:45:00,0.0,1.9417,0.0009,385.95,0.30,263.1,32.6,138.06,31.04,24.66,36.55,0.93,8.41,-26.54,-48,78,-917,25.4,22.2,2.3,25.1,1.6,-29.6,5.73,2.50,-27.2,29.7
2012-08-23 00:46:00,0.0,1.9411,0.0011,386.03,0.25,260.1,32.2,138.06,31.04,24.66,36.55,0.93,8.78,-26.53,-48,78,-917,25.4,22.2,2.3,25.1,1.6,-29.6,5.73,2.50,-27.3,29.7
2012-08-23 00:47:00,0.0,1.9411,0.0011,386.02,0.30,262.4,29.9,138.06,31.04,24.66,36.55,0.92,9.14,-26.52,-48,78,-916,25.4,22.2,2.3,25.2,1.6,-29.7,5.73,2.50,-27.3,29.7
2012-08-23 00:48:00,0.0,1.9409,0.0008,386.05,0.28,257.6,28.4,138.06,31.04,24.66,36.55,0.92,9.50,-26.51,-48,78,-917,25.4,22.2,2.2,25.1,1.6,-29.8,5.73,2.50,-27.3,29.7
2012-08-23 00:49:00,0.0,1.9405,0.0010,386.07,0.30,268.1,35.2,138.06,31.04,24.66,36.54,0.93,9.84,-26.49,-48,78,-917,25.4,22.2,2.3,25.1,1.6,-29.8,5.73,2.50,-27.3,29.8
2012-08-23 00:50:00,0.0,1.9405,0.0009,386.18,0.30,264.7,31.1,138.06,31.05,24.66,36.54,0.93,10.17,-26.49,-48,78,-917,25.4,22.2,2.2,25.2,1.6,-29.7,5.73,2.50,-27.3,29.8
2012-08-23 00:51:00,0.0,1.9406,0.0009,386.05,0.32,257.0,28.6,138.06,31.05,24.66,36.55,0.93,10.49,-26.47,-48,78,-916,25.4,22.1,2.2,25.1,1.6,-29.8,5.73,2.50,-27.3,29.7
2012-08-23 00:52:00,0.0,1.9401,0.0008,386.02,0.28,257.4,32.4,138.06,31.05,24.66,36.55,0.94,10.80,-26.47,-48,77,-917,25.4,22.0,2.1,25.1,1.6,-29.8,5.73,2.50,-27.3,29.8
2012-08-23 00:53:00,0.0,1.9404,0.0010,385.98,0.31,263.7,29.6,138.06,31.05,24.66,36.55,0.93,11.09,-26.46,-48,77,-916,25.4,22.1,2.2,25.1,1.6,-29.8,5.73,2.50,-27.3,29.8
2012-08-23 00:54:00,0.0,1.9406,0.0008,386.05,0.34,259.1,31.8,138.06,31.05,24.66,36.56,0.94,11.37,-26.45,-48,77,-917,25.4,22.1,2.2,25.1,1.6,-29.8,5.73,2.50,-27.3,29.8
2012-08-23 00:55:00,0.0,1.9410,0.0009,385.96,0.30,258.5,33.0,138.06,31.05,24.66,36.54,0.94,11.65,-26.44,-48,77,-917,25.4,22.3,2.3,25.1,1.6,-29.8,5.73,2.50,-27.3,29.8
2012-08-23 00:56:00,0.0,1.9408,0.0010,385.80,0.35,261.0,29.1,138.06,31.05,24.66,36.55,0.92,11.91,-26.43,-48,77,-917,25.4,22.5,2.4,25.1,1.6,-29.8,5.73,2.50,-27.3,29.8
2012-08-23 00:57:00,0.0,1.9411,0.0008,386.22,0.33,261.0,30.4,138.06,31.05,24.66,36.54,0.95,12.16,-26.43,-48,77,-917,25.4,22.2,2.3,25.1,1.6,-29.8,5.73,2.50,-27.3,29.8
2012-08-23 00:58:00,0.0,1.9411,0.0008,386.11,0.33,258.0,28.6,138.06,31.06,24.66,36.54,0.93,12.41,-26.41,-48,77,-917,25.4,22.2,2.2,25.1,1.6,-29.8,5.73,2.50,-27.3,29.8
2012-08-23 00:59:00,0.0,1.9408,0.0008,385.98,0.32,258.9,34.3,138.06,31.06,24.66,36.55,0.94,12.65,-26.41,-48,77,-917,25.4,22.1,2.2,25.2,1.6,-29.7,5.73,2.50,-27.3,29.8
2012-08-23 01:00:00,0.0,1.9407,0.0011,386.26,0.27,260.1,27.4,138.06,31.06,24.66,36.54,0.94,12.87,-26.40,-48,77,-917,25.5,21.8,2.1,25.2,1.6,-29.7,5.73,2.50,-27.3,29.8
2012-08-23 01:01:00,0.0,1.9411,0.0008,386.12,0.33,254.6,30.7,138.06,31.06,24.66,36.55,0.94,13.08,-26.39,-48,77,-916,25.5,21.8,2.1,25.2,1.6,-29.8,5.73,2.50,-27.3,29.8
2012-08-23 01:02:00,0.0,1.9407,0.0008,386.10,0.31,251.3,25.3,138.06,31.06,24.66,36.56,0.93,13.30,-26.39,-48,77,-917,25.5,21.9,2.1,25.2,1.6,-29.7,5.73,2.50,-27.3,29.8
2012-08-23 01:03:00,0.0,1.9410,0.0009,386.15,0.29,255.6,30.8,138.06,31.07,24.66,36.55,0.93,13.49,-26.38,-48,77,-917,25.5,21.6,1.9,25.2,1.6,-29.7,5.73,2.50,-27.3,29.9
2012-08-23 01:04:00,0.0,1.9411,0.0009,386.18,0.29,262.2,33.3,138.06,31.07,24.66,36.55,0.93,13.68,-26.38,-48,77,-917,25.5,21.7,2.0,25.2,1.6,-29.7,5.73,2.50,-27.3,29.8
2012-08-23 01:05:00,0.0,1.9412,0.0009,386.05,0.27,255.3,33.6,138.06,31.07,24.66,36.55,0.94,13.87,-26.37,-48,77,-917,25.5,21.8,2.1,25.2,1.6,-29.7,5.73,2.50,-27.3,29.9
2012-08-23 01:06:00,0.0,1.9420,0.0009,386.03,0.33,261.9,30.2,138.06,31.07,24.66,36.54,0.94,14.05,-26.36,-48,77,-917,25.5,22.1,2.3,25.2,1.6,-29.7,5.73,2.50,-27.3,29.9
2012-08-23 01:07:00,0.0,1.9421,0.0008,385.92,0.29,264.9,32.1,138.06,31.07,24.66,36.54,0.94,14.22,-26.36,-48,77,-917,25.5,22.4,2.4,25.2,1.6,-29.7,5.73,2.50,-27.3,29.9
2012-08-23 01:08:00,0.0,1.9432,0.0009,385.96,0.32,258.9,30.8,138.06,31.07,24.66,36.55,0.94,14.38,-26.35,-48,77,-917,25.5,22.4,2.5,25.2,1.6,-29.7,5.73,2.50,-27.3,29.9
2012-08-23 01:09:00,0.0,1.9430,0.0008,386.01,0.32,255.0,29.0,138.06,31.07,24.66,36.55,0.94,14.54,-26.35,-48,77,-917,25.5,22.5,2.5,25.2,1.6,-29.7,5.73,2.50,-27.3,29.8
2012-08-23 01:10:00,0.0,1.9429,0.0009,386.20,0.29,249.4,30.7,138.06,31.07,24.66,36.55,0.94,14.69,-26.34,-48,77,-917,25.5,22.4,2.4,25.2,1.6,-29.7,5.73,2.50,-27.3,29.8
2012-08-23 01:11:00,0.0,1.9434,0.0009,386.16,0.30,254.6,32.4,138.06,31.07,24.66,36.55,0.94,14.84,-26.34,-48,77,-917,25.5,22.3,2.4,25.2,1.6,-29.7,5.73,2.50,-27.3,29.8
2012-08-23 01:12:00,0.0,1.9432,0.0009,386.04,0.29,258.5,29.1,138.06,31.08,24.66,36.55,0.94,14.98,-26.33,-48,77,-917,25.5,22.6,2.6,25.2,1.6,-29.7,5.73,2.50,-27.3,29.8
2012-08-23 01:13:00,0.0,1.9441,0.0008,386.45,0.30,253.2,32.4,138.06,31.08,24.66,36.54,0.94,15.11,-26.33,-48,77,-916,25.5,22.4,2.4,25.2,1.6,-29.7,5.73,2.50,-27.3,29.9
2012-08-23 01:14:00,0.0,1.9438,0.0009,386.26,0.29,265.1,27.2,138.06,31.08,24.66,36.56,0.94,15.23,-26.32,-48,77,-917,25.5,22.2,2.3,25.2,1.6,-29.7,5.73,2.50,-27.3,29.9
2012-08-23 01:15:00,0.0,1.9439,0.0011,386.34,0.35,257.9,31.3,138.06,31.08,24.66,36.54,0.94,15.35,-26.32,-48,77,-917,25.5,22.1,2.3,25.2,1.6,-29.7,5.73,2.50,-27.3,29.8
2012-08-23 01:16:00,0.0,1.9433,0.0009,386.32,0.30,257.5,24.6,138.06,31.08,24.66,36.54,0.94,15.47,-26.32,-48,77,-917,25.5,22.1,2.3,25.2,1.6,-29.7,5.73,2.50,-27.3,29.9
2012-08-23 01:17:00,0.0,1.9433,0.0009,386.29,0.29,257.2,31.1,138.06,31.08,24.66,36.55,0.94,15.57,-26.32,-48,77,-917,25.5,22.1,2.3,25.2,1.6,-29.7,5.73,2.50,-27.3,29.9
2012-08-23 01:18:00,0.0,1.9431,0.0008,386.22,0.31,250.9,31.5,138.06,31.08,24.66,36.55,0.93,15.69,-26.31,-49,77,-917,25.5,22.0,2.2,25.2,1.6,-29.7,5.73,2.50,-27.3,29.9
2012-08-23 01:19:00,0.0,1.9429,0.0009,386.29,0.30,254.4,30.7,138.06,31.08,24.66,36.55,0.94,15.79,-26.30,-48,77,-917,25.5,21.8,2.1,25.3,1.6,-29.7,5.73,2.50,-27.4,29.9
2012-08-23 01:20:00,0.0,1.9429,0.0009,386.36,0.31,256.9,33.4,138.06,31.09,24.66,36.55,0.94,15.89,-26.30,-48,77,-917,25.5,21.7,2.1,25.2,1.6,-29.7,5.73,2.50,-27.4,29.9
2012-08-23 01:21:00,0.0,1.9430,0.0010,386.29,0.27,252.6,24.3,138.06,31.09,24.66,36.55,0.94,15.98,-26.30,-49,77,-916,25.5,21.7,2.1,25.2,1.6,-29.7,5.73,2.50,-27.4,29.9
2012-08-23 01:22:00,0.0,1.9428,0.0009,386.40,0.29,252.7,32.6,138.06,31.09,24.66,36.54,0.94,16.07,-26.29,-48,77,-917,25.6,21.5,1.9,25.3,1.6,-29.7,5.73,2.50,-27.4,29.8
2012-08-23 01:23:00,0.0,1.9429,0.0011,386.30,0.32,251.0,31.9,138.06,31.09,24.66,36.54,0.94,16.16,-26.28,-48,77,-917,25.5,21.5,1.9,25.3,1.6,-29.7,5.73,2.50,-27.4,29.9
2012-08-23 01:24:00,0.0,1.9429,0.0012,386.28,0.39,251.7,27.3,138.05,31.09,24.66,36.55,0.95,16.23,-26.29,-49,77,-917,25.5,21.7,2.0,25.3,1.6,-29.7,5.73,2.50,-27.4,29.8
2012-08-23 01:25:00,0.0,1.9442,0.0009,386.40,0.34,254.1,23.4,138.06,31.09,24.66,36.55,0.95,16.32,-26.27,-48,77,-917,25.5,21.7,2.1,25.3,1.6,-29.7,5.73,2.50,-27.4,29.9
2012-08-23 01:26:00,0.0,1.9452,0.0012,386.50,0.26,255.2,29.8,138.06,31.09,24.66,36.54,0.94,16.39,-26.27,-48,77,-917,25.5,21.9,2.2,25.3,1.6,-29.7,5.73,2.50,-27.4,29.8
2012-08-23 01:27:00,0.0,1.9438,0.0009,386.34,0.31,252.1,29.2,138.06,31.10,24.66,36.55,0.94,16.46,-26.27,-49,77,-917,25.5,21.9,2.2,25.3,1.6,-29.7,5.73,2.50,-27.4,29.9
2012-08-23 01:28:00,0.0,1.9429,0.0009,386.18,0.34,256.7,28.2,138.06,31.10,24.66,36.55,0.94,16.53,-26.27,-49,77,-917,25.5,22.0,2.2,25.3,1.6,-29.7,5.73,2.50,-27.4,29.9
2012-08-23 01:29:00,0.0,1.9432,0.0009,386.32,0.30,256.2,28.0,138.06,31.10,24.66,36.55,0.94,16.59,-26.27,-49,77,-917,25.5,22.0,2.2,25.3,1.6,-29.7,5.73,2.50,-27.4,29.9
2012-08-23 01:30:00,0.0,1.9437,0.0012,386.30,0.35,245.8,31.0,138.06,31.10,24.66,36.55,0.94,16.66,-26.26,-49,77,-917,25.5,21.8,2.1,25.3,1.6,-29.7,5.73,2.50,-27.4,29.9
2012-08-23 01:31:00,0.0,1.9441,0.0012,386.25,0.30,242.1,28.7,138.05,31.10,24.66,36.55,0.95,16.71,-26.26,-48,77,-917,25.5,22.1,2.3,25.3,1.6,-29.7,5.73,2.50,-27.4,29.9
2012-08-23 01:32:00,0.0,1.9435,0.0011,386.30,0.28,245.2,29.3,138.05,31.10,24.66,36.55,0.94,16.78,-26.26,-49,77,-917,25.5,22.1,2.3,25.3,1.6,-29.7,5.73,2.50,-27.4,29.9
2012-08-23 01:33:00,0.0,1.9432,0.0011,386.30,0.28,250.3,26.0,138.05,31.10,24.66,36.55,0.94,16.83,-26.26,-48,77,-917,25.5,21.8,2.1,25.3,1.6,-29.7,5.73,2.50,-27.4,29.9
2012-08-23 01:34:00,0.0,1.9429,0.0008,386.09,0.32,250.1,31.6,138.06,31.10,24.66,36.55,0.94,16.88,-26.25,-48,77,-917,25.5,21.9,2.2,25.3,1.6,-29.7,5.73,2.50,-27.4,29.9
2012-08-23 01:35:00,0.0,1.9435,0.0010,386.17,0.30,258.6,29.0,138.05,31.10,24.65,36.55,0.94,16.93,-26.25,-49,77,-917,25.6,21.9,2.2,25.3,1.6,-29.7,5.73,2.50,-27.4,29.9
2012-08-23 01:36:00,0.0,1.9434,0.0007,386.05,0.30,256.0,28.2,138.06,31.10,24.66,36.55,0.94,16.99,-26.25,-48,77,-917,25.6,22.1,2.4,25.3,1.6,-29.7,5.73,2.50,-27.4,29.9
2012-08-23 01:37:00,0.0,1.9433,0.0010,386.18,0.27,253.8,30.3,138.06,31.10,24.66,36.55,0.94,17.03,-26.24,-49,77,-917,25.6,22.1,2.4,25.3,1.6,-29.7,5.73,2.50,-27.4,29.9
2012-08-23 01:38:00,0.0,1.9427,0.0008,386.46,0.28,259.2,33.7,138.06,31.10,24.66,36.55,0.94,17.08,-26.24,-49,77,-917,25.6,21.5,1.9,25.3,1.6,-29.7,5.73,2.50,-27.4,29.9
2012-08-23 01:39:00,0.0,1.9426,0.0008,386.31,0.30,254.9,30.5,138.06,31.10,24.66,36.54,0.94,17.12,-26.24,-49,77,-917,25.6,21.5,2.0,25.3,1.6,-29.7,5.73,2.50,-27.4,29.9
2012-08-23 01:40:00,0.0,1.9429,0.0009,386.48,0.29,249.5,30.7,138.05,31.11,24.66,36.54,0.94,17.16,-26.23,-49,77,-917,25.6,21.4,1.9,25.3,1.6,-29.7,5.73,2.50,-27.4,29.8
2012-08-23 01:41:00,0.0,1.9430,0.0009,386.41,0.27,247.7,27.0,138.06,31.11,24.66,36.55,0.94,17.20,-26.24,-49,77,-917,25.6,21.3,1.8,25.3,1.6,-29.7,5.73,2.50,-27.4,29.9
2012-08-23 01:42:00,0.0,1.9428,0.0009,386.40,0.27,247.8,29.3,138.05,31.11,24.66,36.55,0.94,17.24,-26.23,-49,77,-917,25.6,21.4,1.9,25.3,1.6,-29.7,5.73,2.50,-27.4,29.9
2012-08-23 01:43:00,0.0,1.9437,0.0010,386.39,0.33,248.6,28.3,138.06,31.11,24.66,36.55,0.94,17.28,-26.23,-49,77,-917,25.6,21.3,1.8,25.3,1.6,-29.7,5.73,2.50,-27.4,29.9
2012-08-23 01:44:00,0.0,1.9442,0.0008,386.38,0.26,244.6,33.6,138.05,31.11,24.66,36.55,0.94,17.31,-26.23,-49,77,-917,25.6,21.5,2.0,25.3,1.6,-29.7,5.73,2.50,-27.4,29.9
2012-08-23 01:45:00,0.0,1.9439,0.0008,386.25,0.33,249.6,28.1,138.06,31.11,24.66,36.55,0.94,17.34,-26.23,-49,77,-917,25.6,21.3,1.8,25.3,1.6,-29.7,5.73,2.50,-27.4,29.9
2012-08-23 01:46:00,0.0,1.9437,0.0010,386.36,0.31,247.4,26.6,138.05,31.11,24.66,36.55,0.94,17.38,-26.22,-49,77,-917,25.6,21.5,2.0,25.3,1.6,-29.7,5.73,2.50,-27.4,29.9
2012-08-23 01:47:00,0.0,1.9441,0.0010,386.34,0.28,250.8,29.1,138.05,31.12,24.65,36.55,0.94,17.41,-26.22,-49,77,-917,25.6,21.2,1.8,25.3,1.6,-29.7,5.73,2.50,-27.4,29.9
2012-08-23 01:48:00,0.0,1.9436,0.0009,386.24,0.34,255.0,26.3,138.05,31.12,24.66,36.56,0.94,17.44,-26.22,-49,77,-917,25.6,20.9,1.6,25.3,1.6,-29.7,5.73,2.50,-27.4,29.9
2012-08-23 01:49:00,0.0,1.9437,0.0010,386.54,0.33,249.2,30.0,138.06,31.12,24.66,36.55,0.94,17.46,-26.22,-49,77,-917,25.6,20.9,1.6,25.3,1.6,-29.7,5.73,2.50,-27.4,29.9
2012-08-23 01:50:00,0.0,1.9441,0.0011,386.34,0.26,257.3,30.3,138.06,31.12,24.66,36.55,0.94,17.49,-26.22,-49,77,-917,25.6,21.2,1.8,25.3,1.6,-29.7,5.73,2.50,-27.4,29.8
2012-08-23 01:51:00,0.0,1.9440,0.0010,386.39,0.25,249.2,31.1,138.06,31.12,24.66,36.55,0.94,17.51,-26.22,-49,77,-917,25.6,21.0,1.6,25.3,1.6,-29.7,5.73,2.50,-27.4,29.9
2012-08-23 01:52:00,0.0,1.9447,0.0012,386.26,0.30,245.4,30.4,138.05,31.12,24.66,36.55,0.94,17.53,-26.21,-49,77,-917,25.6,21.2,1.8,25.3,1.6,-29.7,5.73,2.50,-27.4,29.9
2012-08-23 01:53:00,0.0,1.9454,0.0009,386.42,0.27,258.9,32.9,138.06,31.12,24.66,36.55,0.94,17.56,-26.21,-49,77,-917,25.6,21.2,1.8,25.3,1.6,-29.6,5.73,2.50,-27.4,29.9
2012-08-23 01:54:00,0.0,1.9450,0.0011,386.49,0.29,254.0,28.5,138.05,31.13,24.66,36.55,0.94,17.58,-26.21,-49,77,-917,25.6,21.0,1.6,25.3,1.6,-29.7,5.73,2.50,-27.4,29.9
2012-08-23 01:55:00,0.0,1.9449,0.0009,386.46,0.24,254.8,26.7,138.06,31.13,24.66,36.55,0.95,17.61,-26.21,-49,77,-917,25.6,21.0,1.7,25.3,1.6,-29.7,5.73,2.49,-27.4,29.9
2012-08-23 01:56:00,0.0,1.9452,0.0009,386.56,0.25,251.6,30.0,138.06,31.13,24.66,36.55,0.95,17.63,-26.21,-49,77,-917,25.6,20.9,1.6,25.3,1.6,-29.7,5.73,2.50,-27.4,29.9
2012-08-23 01:57:00,0.0,1.9456,0.0010,386.45,0.29,242.2,31.7,138.05,31.13,24.66,36.55,0.94,17.64,-26.21,-49,77,-917,25.6,21.1,1.7,25.3,1.6,-29.6,5.73,2.50,-27.4,29.9
2012-08-23 01:58:00,0.0,1.9451,0.0010,386.33,0.29,249.3,29.7,138.05,31.13,24.66,36.56,0.94,17.66,-26.21,-49,77,-917,25.6,21.0,1.7,25.3,1.6,-29.7,5.73,2.50,-27.4,29.8
2012-08-23 01:59:00,0.0,1.9453,0.0008,386.51,0.22,244.9,28.1,138.05,31.13,24.66,36.55,0.94,17.68,-26.21,-49,77,-917,25.6,21.0,1.6,25.4,1.6,-29.7,5.73,2.50,-27.4,29.9
2012-08-23 02:00:00,0.0,1.9449,0.0012,386.52,0.26,246.1,27.1,138.05,31.13,24.66,36.55,0.94,17.70,-26.20,-49,77,-917,25.6,20.9,1.6,25.3,1.6,-29.6,5.73,2.50,-27.4,29.9
2012-08-23 02:01:00,0.0,1.9443,0.0010,386.52,0.26,250.3,28.9,138.05,31.13,24.66,36.55,0.94,17.71,-26.20,-49,77,-917,25.6,20.7,1.5,25.3,1.6,-29.6,5.73,2.50,-27.4,29.9
2012-08-23 02:02:00,0.0,1.9453,0.0009,386.57,0.26,248.1,27.3,138.06,31.13,24.66,36.55,0.94,17.73,-26.20,-49,77,-917,25.6,20.9,1.6,25.3,1.6,-29.7,5.73,2.50,-27.4,29.9
2012-08-23 02:03:00,0.0,1.9454,0.0009,386.62,0.25,257.6,30.6,138.06,31.13,24.66,36.54,0.94,17.75,-26.20,-49,77,-917,25.6,20.9,1.6,25.3,1.6,-29.7,5.73,2.50,-27.4,29.9
2012-08-23 02:04:00,0.0,1.9453,0.0010,386.56,0.30,250.5,30.9,138.06,31.13,24.66,36.55,0.94,17.76,-26.20,-49,77,-917,25.6,20.8,1.5,25.3,1.6,-29.7,5.73,2.50,-27.4,29.9
2012-08-23 02:05:00,0.0,1.9456,0.0011,386.60,0.30,249.0,33.4,138.06,31.13,24.66,36.55,0.94,17.77,-26.20,-49,77,-917,25.6,20.8,1.5,25.4,1.6,-29.6,5.73,2.50,-27.4,29.8
2012-08-23 02:06:00,0.0,1.9457,0.0010,386.70,0.26,250.4,31.4,138.06,31.14,24.66,36.54,0.96,17.77,-26.20,-49,77,-917,25.6,20.7,1.5,25.3,1.6,-29.7,5.73,2.50,-27.4,29.9
2012-08-23 02:07:00,0.0,1.9454,0.0010,386.54,0.29,247.3,34.2,138.06,31.14,24.66,36.55,1.10,16.84,-26.20,-49,77,-917,25.6,20.7,1.4,25.4,1.6,-29.7,5.73,2.50,-27.4,29.9
2012-08-23 02:08:00,0.0,1.9452,0.0010,386.67,0.30,254.2,27.6,138.06,31.14,24.66,36.55,1.10,14.75,-26.20,-49,77,-917,25.6,20.6,1.4,25.4,1.6,-29.6,5.73,2.50,-27.4,29.9
2012-08-23 02:09:00,0.0,1.9451,0.0011,386.54,0.32,247.8,31.5,138.06,31.14,24.66,36.55,0.95,12.44,-26.20,-49,77,-917,25.6,20.7,1.5,25.4,1.6,-29.7,5.73,2.50,-27.4,29.8
2012-08-23 02:10:00,0.0,1.9444,0.0008,386.50,0.24,251.8,26.1,138.05,31.14,24.66,36.55,1.04,10.12,-26.20,-49,77,-917,25.6,20.7,1.4,25.3,1.6,-29.6,5.73,2.50,-27.4,29.8
2012-08-23 02:11:00,0.0,1.9443,0.0009,386.39,0.32,247.8,28.9,138.06,31.14,24.66,36.55,1.10,7.87,-26.19,-49,77,-917,25.6,20.7,1.5,25.4,1.6,-29.6,5.73,2.50,-27.4,29.8
2012-08-23 02:12:00,0.0,1.9440,0.0009,386.37,0.34,248.8,28.1,138.06,31.14,24.66,36.55,0.98,5.71,-26.17,-49,77,-917,25.6,20.8,1.5,25.4,1.6,-29.7,5.73,2.50,-27.4,29.8
2012-08-23 02:13:00,0.0,1.9440,0.0011,386.33,0.31,253.6,27.3,138.06,31.14,24.66,36.54,1.04,3.67,-26.15,-49,77,-917,25.6,21.0,1.7,25.4,1.6,-29.6,5.73,2.51,-27.4,29.8
2012-08-23 02:14:00,0.0,1.9456,0.0009,386.52,0.28,247.8,31.0,138.06,31.14,24.66,36.55,1.09,1.72,-26.14,-49,77,-917,25.6,21.4,1.9,25.4,1.6,-29.6,5.73,2.50,-27.4,29.8
2012-08-23 02:15:00,0.0,1.9460,0.0009,386.39,0.30,248.4,31.2,138.06,31.14,24.66,36.56,0.98,-0.14,-26.12,-49,77,-917,25.6,21.7,2.2,25.4,1.6,-29.6,5.73,2.50,-27.4,29.8
2012-08-23 02:16:00,0.0,1.9458,0.0009,386.52,0.29,260.3,30.5,138.06,31.14,24.66,36.55,1.01,-1.89,-26.11,-49,77,-917,25.7,21.6,2.1,25.4,1.6,-29.7,5.73,2.50,-27.3,29.8
2012-08-23 02:17:00,0.0,1.9457,0.0009,386.50,0.25,255.6,27.8,138.06,31.14,24.66,36.55,1.08,-2.25,-26.09,-49,77,-917,25.6,21.2,1.8,25.4,1.6,-29.6,5.73,2.50,-27.4,29.8
2012-08-23 02:18:00,0.0,1.9461,0.0010,386.51,0.28,251.8,27.5,138.06,31.14,24.66,36.55,1.01,-4.04,-26.08,-49,77,-917,25.6,21.2,1.8,25.4,1.6,-29.6,5.73,2.50,-27.4,29.8
2012-08-23 02:19:00,0.0,1.9462,0.0009,386.57,0.30,254.2,28.0,138.06,31.14,24.66,36.55,0.98,-5.77,-26.07,-49,77,-917,25.7,21.4,2.0,25.4,1.6,-29.6,5.73,2.50,-27.3,29.8
2012-08-23 02:20:00,0.0,1.9463,0.0008,386.57,0.27,256.8,28.8,138.06,31.14,24.66,36.55,1.03,-7.20,-26.06,-49,77,-917,25.6,21.4,1.9,25.4,1.6,-29.6,5.73,2.50,-27.3,29.7
2012-08-23 02:21:00,0.0,1.9463,0.0009,386.54,0.22,260.1,30.0,138.06,31.14,24.66,36.55,1.08,-8.54,-26.05,-49,78,-917,25.7,21.3,1.9,25.4,1.6,-29.6,5.73,2.50,-27.3,29.7